Back to catalog

COSMOS 2491 DEB

AlivePO
NORAD 57550·DEBRIS·🇷🇺 Russia

Launched Dec 25, 2013 from Plesetsk Cosmodrome

Loading…

Next Passes (next 24 hours)

TLE

AgingSource: Space-Track

Epoch: Sep 4, 2026, 17:31 UTC

1 57550U 13076AM  26247.73035989  .00002539  00000-0  10905-1 0  9999
2 57550  82.4578  44.6691 0194357 266.7251  91.1597 12.75781055154234

Track COSMOS 2491 DEB in real time with AllMySat

Download on the App Store